OIZB

Details ICAO OIZB
Name ZABOL
Region Iran
Timezone Asia/Tehran (UTC+4.5)
Plans Departing 2
Arriving 3
Stats Elevation 1,628 ft / 496 m (AMSL)
Location 31.097150° 61.544107°
Runways 1
Magnetic Variation 2.784° E
Sunrise 2018-05-28 00:53:27 UTC / 2018-05-28 05:23:27 Local
Sunset 2018-05-28 14:51:35 UTC / 2018-05-28 19:21:35 Local
Advertisement - Login to hide

Runways

ID Width Length Bearing (true) Bearing (mag) Surface Threshold Offset Overrun Length
16 148 ft / 45 m 9,876 ft / 3,010 m 166.86° 164.08° Asphalt 0 ft / 0 m 820 ft / 250 m
34 148 ft / 45 m 9,876 ft / 3,010 m 346.86° 344.08° Asphalt 0 ft / 0 m 820 ft / 250 m

Map

Weather


0- 5 10 15 20 25 30 35+ Temperature / ° C

Clouds and Precipitation
Forecast for 2018-05-28 00:00 UTC. Updated 42 minutes ago

Ground ~20,000 ft ~40,000 ft Winds

METAR

OIZB 280000Z 34037G51KT 0700 DS VV/// 27/10 Q1008

TAF

Not found

Frequencies

Tower 121.70 MHz INFO
Tower 118.35 MHz INFO
Warning: Do not use this data for real-world aviation or navigation. No guarantee of current accuracy is given.